| time (UTC) | temp C | wind direction | speed KPH | gust KPH | rain 1hr cm | rain 24hr cm | rain mn cm | humidity % | barometer mb |
| 20260906090327 | 21 | 278 | 0.0 | 0.0 | 0.00 | 0.05 | 0.00 | 100 | 1012.6 |
| 20260906085317 | 21 | 278 | 0.0 | 0.0 | 0.00 | 0.05 | 0.00 | 100 | 1012.7 |
| 20260906084329 | 21 | 278 | 0.0 | 0.0 | 0.00 | 0.05 | 0.00 | 100 | 1012.7 |
| 20260906083347 | 21 | 278 | 0.0 | 0.0 | 0.00 | 0.05 | 0.00 | 100 | 1012.8 |
| 20260906082324 | 21 | 278 | 0.0 | 0.0 | 0.00 | 0.05 | 0.00 | 100 | 1012.7 |
| 20260906081340 | 21 | 278 | 0.0 | 0.0 | 0.00 | 0.05 | 0.00 | 100 | 1012.6 |
| 20260906080315 | 21 | 278 | 0.0 | 0.0 | 0.00 | 0.05 | 0.00 | 100 | 1012.5 |
| 20260906075324 | 21 | 278 | 0.0 | 0.0 | 0.00 | 0.05 | 0.00 | 100 | 1012.4 |
| 20260906074320 | 21 | 278 | 0.0 | 0.0 | 0.00 | 0.05 | 0.00 | 100 | 1012.3 |
| 20260906073336 | 21 | 278 | 0.0 | 0.0 | 0.00 | 0.05 | 0.00 | 100 | 1012.3 |
| 20260906072334 | 21 | 278 | 0.0 | 0.0 | 0.00 | 0.05 | 0.00 | 100 | 1012.4 |
| 20260906071328 | 21 | 278 | 0.0 | 0.0 | 0.00 | 0.05 | 0.00 | 100 | 1012.5 |
| 20260906070315 | 21 | 278 | 0.0 | 0.0 | 0.00 | 0.05 | 0.00 | 100 | 1012.6 |
| 20260906065334 | 21 | 278 | 0.0 | 0.0 | 0.00 | 0.05 | 0.00 | 100 | 1012.6 |
| 20260906064322 | 21 | 278 | 0.0 | 0.0 | 0.00 | 0.05 | 0.00 | 100 | 1012.6 |
| 20260906063318 | 21 | 278 | 0.0 | 0.0 | 0.00 | 0.05 | 0.00 | 100 | 1012.6 |
| 20260906062332 | 22 | 278 | 0.0 | 0.0 | 0.00 | 0.05 | 0.00 | 100 | 1012.8 |
| 20260906061329 | 22 | 278 | 0.0 | 0.0 | 0.00 | 0.05 | 0.00 | 100 | 1012.8 |
| 20260906060316 | 22 | 278 | 0.0 | 0.0 | 0.00 | 0.05 | 0.00 | 100 | 1012.8 |
| 20260906055335 | 22 | 278 | 0.0 | 0.0 | 0.00 | 0.05 | 0.00 | 100 | 1013.1 |
| 20260906054324 | 22 | 278 | 0.0 | 0.0 | 0.00 | 0.05 | 0.00 | 100 | 1013.1 |
| 20260906053349 | 22 | 278 | 0.0 | 0.0 | 0.00 | 0.05 | 0.00 | 100 | 1013.5 |
| 20260906052315 | 22 | 278 | 0.0 | 0.0 | 0.00 | 0.05 | 0.00 | 100 | 1013.4 |
| 20260906051332 | 22 | 278 | 0.0 | 0.0 | 0.00 | 0.05 | 0.00 | 100 | 1013.5 |
| 20260906050329 | 22 | 278 | 0.0 | 0.0 | 0.00 | 0.05 | 0.00 | 100 | 1013.4 |
| 20260906045319 | 22 | 278 | 0.0 | 0.0 | 0.00 | 0.05 | 0.00 | 100 | 1013.5 |
| 20260906044315 | 22 | 278 | 0.0 | 0.0 | 0.00 | 0.05 | 0.00 | 100 | 1013.7 |
| 20260906043333 | 22 | 278 | 0.0 | 0.0 | 0.00 | 0.05 | 0.00 | 100 | 1013.9 |
| 20260906042320 | 22 | 278 | 0.0 | 0.0 | 0.00 | 0.05 | 0.00 | 100 | 1013.8 |
| 20260906041317 | 22 | 278 | 0.0 | 0.0 | 0.00 | 0.05 | 0.00 | 100 | 1013.9 |
| 20260906040333 | 22 | 278 | 0.0 | 0.0 | 0.00 | 0.05 | 0.00 | 100 | 1013.9 |
| 20260906035325 | 22 | 278 | 0.0 | 0.0 | 0.00 | 0.05 | 0.05 | 99 | 1013.9 |
| 20260906034337 | 22 | 278 | 0.0 | 0.0 | 0.00 | 0.05 | 0.05 | 99 | 1014.0 |
| 20260906033312 | 22 | 278 | 0.0 | 0.0 | 0.00 | 0.05 | 0.05 | 99 | 1014.0 |
| 20260906032329 | 22 | 278 | 0.0 | 0.0 | 0.00 | 0.05 | 0.05 | 99 | 1014.0 |
| 20260906031327 | 22 | 278 | 0.0 | 0.0 | 0.00 | 0.05 | 0.05 | 99 | 1014.0 |
| 20260906030315 | 22 | 278 | 0.0 | 0.0 | 0.00 | 0.05 | 0.05 | 99 | 1013.9 |
| 20260906025334 | 22 | 278 | 0.0 | 0.0 | 0.00 | 0.05 | 0.05 | 99 | 1013.9 |
| 20260906024329 | 22 | 278 | 0.0 | 0.0 | 0.00 | 0.05 | 0.05 | 99 | 1013.8 |
| 20260906023345 | 22 | 278 | 0.0 | 0.0 | 0.00 | 0.05 | 0.05 | 99 | 1014.0 |
| 20260906022319 | 22 | 278 | 0.0 | 0.0 | 0.00 | 0.05 | 0.05 | 98 | 1014.0 |
| 20260906021335 | 22 | 278 | 0.0 | 0.0 | 0.00 | 0.05 | 0.05 | 98 | 1014.0 |
| 20260906020348 | 22 | 278 | 0.0 | 0.0 | 0.00 | 0.05 | 0.05 | 98 | 1013.7 |
| 20260906015317 | 23 | 278 | 0.0 | 0.0 | 0.00 | 0.05 | 0.05 | 98 | 1013.5 |
| 20260906014334 | 23 | 278 | 0.0 | 0.0 | 0.00 | 0.05 | 0.05 | 98 | 1013.5 |
| 20260906013321 | 23 | 278 | 0.0 | 0.0 | 0.00 | 0.05 | 0.05 | 97 | 1013.5 |
| 20260906012318 | 23 | 278 | 0.0 | 0.0 | 0.00 | 0.05 | 0.05 | 97 | 1013.4 |
| 20260906011351 | 23 | 278 | 0.0 | 0.0 | 0.00 | 0.05 | 0.05 | 97 | 1013.2 |
| 20260906010326 | 23 | 278 | 0.0 | 0.0 | 0.00 | 0.05 | 0.05 | 97 | 1013.3 |
| 20260906005317 | 23 | 278 | 0.0 | 0.0 | 0.00 | 0.05 | 0.05 | 97 | 1013.2 |
| 20260906004400 | 23 | 278 | 0.0 | 0.0 | 0.00 | 0.05 | 0.05 | 97 | 1013.1 |
| 20260906003327 | 23 | 278 | 0.0 | 0.0 | 0.00 | 0.05 | 0.05 | 97 | 1012.9 |
| 20260906002323 | 23 | 278 | 0.0 | 0.0 | 0.00 | 0.05 | 0.05 | 97 | 1012.9 |
| 20260906001319 | 23 | 278 | 0.0 | 0.0 | 0.00 | 0.05 | 0.05 | 98 | 1012.7 |
| 20260906000352 | 23 | 278 | 0.0 | 0.0 | 0.00 | 0.05 | 0.05 | 97 | 1012.6 |
| 20260905235322 | 24 | 278 | 0.0 | 0.0 | 0.00 | 0.05 | 0.05 | 97 | 1012.7 |
| 20260905234318 | 24 | 278 | 0.0 | 0.0 | 0.00 | 0.05 | 0.05 | 97 | 1012.6 |
| 20260905233335 | 24 | 278 | 0.0 | 0.0 | 0.00 | 0.05 | 0.05 | 97 | 1012.6 |
| 20260905232322 | 25 | 278 | 0.0 | 0.0 | 0.00 | 0.05 | 0.05 | 98 | 1012.5 |
| 20260905231319 | 25 | 278 | 0.0 | 0.0 | 0.00 | 0.05 | 0.05 | 98 | 1012.6 |
| 20260905230406 | 24 | 278 | 0.0 | 0.0 | 0.00 | 0.05 | 0.05 | 98 | 1012.6 |
| 20260905225334 | 24 | 278 | 0.0 | 0.0 | 0.00 | 0.05 | 0.05 | 98 | 1012.6 |
| 20260905224320 | 24 | 278 | 0.0 | 0.0 | 0.00 | 0.05 | 0.05 | 98 | 1012.3 |
| 20260905223405 | 24 | 278 | 0.0 | 0.0 | 0.00 | 0.05 | 0.05 | 99 | 1012.3 |
| 20260905222331 | 24 | 278 | 0.0 | 0.0 | 0.00 | 0.05 | 0.05 | 99 | 1012.2 |
| 20260905221328 | 24 | 278 | 0.0 | 0.0 | 0.00 | 0.05 | 0.05 | 99 | 1012.2 |
| 20260905220324 | 23 | 278 | 0.0 | 0.0 | 0.00 | 0.05 | 0.05 | 98 | 1012.1 |
| 20260905215335 | 23 | 278 | 0.0 | 0.0 | 0.00 | 0.05 | 0.05 | 98 | 1012.3 |
| 20260905214331 | 23 | 278 | 0.0 | 0.0 | 0.00 | 0.05 | 0.05 | 98 | 1012.7 |
| 20260905213319 | 23 | 278 | 0.0 | 0.0 | 0.00 | 0.05 | 0.05 | 98 | 1012.8 |
| 20260905212345 | 23 | 278 | 0.0 | 6.4 | 0.00 | 0.05 | 0.05 | 98 | 1012.9 |
| 20260905211402 | 23 | 15 | 0.0 | 0.0 | 0.00 | 0.05 | 0.05 | 97 | 1012.8 |
| 20260905210358 | 23 | 79 | 0.0 | 0.0 | 0.03 | 0.05 | 0.05 | 97 | 1013.0 |
| 20260905205327 | 23 | 82 | 0.0 | 0.0 | 0.03 | 0.05 | 0.05 | 97 | 1013.0 |
| 20260905204343 | 23 | 81 | 0.0 | 0.0 | 0.03 | 0.05 | 0.05 | 96 | 1012.9 |
| 20260905203331 | 23 | 81 | 0.0 | 0.0 | 0.03 | 0.05 | 0.05 | 96 | 1012.6 |
| 20260905202327 | 23 | 81 | 0.0 | 0.0 | 0.03 | 0.05 | 0.05 | 96 | 1012.5 |
| 20260905201346 | 23 | 81 | 0.0 | 0.0 | 0.03 | 0.05 | 0.05 | 96 | 1012.6 |
| 20260905200341 | 23 | 81 | 0.0 | 0.0 | 0.00 | 0.03 | 0.03 | 95 | 1013.2 |
| 20260905195335 | 22 | 82 | 0.0 | 4.8 | 0.03 | 0.03 | 0.03 | 93 | 1013.6 |
| 20260905194321 | 22 | 80 | 0.0 | 0.0 | 0.03 | 0.03 | 0.03 | 92 | 1013.4 |
| 20260905193317 | 22 | 80 | 0.0 | 0.0 | 0.03 | 0.03 | 0.03 | 89 | 1013.2 |
| 20260905192330 | 22 | 80 | 0.0 | 0.0 | 0.03 | 0.03 | 0.03 | 87 | 1012.9 |
| 20260905191327 | 23 | 124 | 0.0 | 1.6 | 0.03 | 0.03 | 0.03 | 83 | 1012.9 |
| 20260905190343 | 23 | 145 | 0.0 | 1.6 | 0.03 | 0.03 | 0.03 | 80 | 1012.8 |
| 20260905185331 | 25 | 346 | 0.0 | 14.5 | 0.00 | 0.00 | 0.00 | 79 | 1013.5 |
| 20260905184328 | 27 | 274 | 4.8 | 20.9 | 0.00 | 0.00 | 0.00 | 69 | 1014.8 |
| 20260905183325 | 35 | 342 | 8.0 | 16.1 | 0.00 | 0.00 | 0.00 | 50 | 1014.3 |
| 20260905182340 | 37 | 287 | 0.0 | 1.6 | 0.00 | 0.00 | 0.00 | 41 | 1012.8 |
| 20260905181353 | 37 | 316 | 0.0 | 1.6 | 0.00 | 0.00 | 0.00 | 40 | 1012.7 |
| 20260905180319 | 37 | 309 | 0.0 | 8.0 | 0.00 | 0.00 | 0.00 | 39 | 1013.1 |
| 20260905175338 | 37 | 289 | 0.0 | 4.8 | 0.00 | 0.00 | 0.00 | 39 | 1013.2 |
| 20260905174353 | 36 | 277 | 0.0 | 4.8 | 0.00 | 0.00 | 0.00 | 42 | 1013.5 |
| 20260905173326 | 36 | 3 | 0.0 | 8.0 | 0.00 | 0.00 | 0.00 | 41 | 1013.7 |
| 20260905172323 | 36 | 293 | 1.6 | 8.0 | 0.00 | 0.00 | 0.00 | 45 | 1013.9 |
| 20260905171338 | 36 | 285 | 0.0 | 4.8 | 0.00 | 0.00 | 0.00 | 44 | 1014.1 |
| 20260905170326 | 36 | 237 | 1.6 | 4.8 | 0.00 | 0.00 | 0.00 | 45 | 1014.2 |
| 20260905165316 | 36 | 264 | 0.0 | 6.4 | 0.00 | 0.00 | 0.00 | 45 | 1014.3 |
| 20260905164332 | 36 | 131 | 0.0 | 8.0 | 0.00 | 0.00 | 0.00 | 47 | 1014.4 |
| 20260905163329 | 35 | 319 | 1.6 | 11.3 | 0.00 | 0.00 | 0.00 | 47 | 1014.7 |
| 20260905162326 | 36 | 276 | 0.0 | 3.2 | 0.00 | 0.00 | 0.00 | 46 | 1014.7 |
| 20260905161342 | 35 | 246 | 0.0 | 4.8 | 0.00 | 0.00 | 0.00 | 45 | 1014.8 |
| 20260905160330 | 35 | 297 | 0.0 | 3.2 | 0.00 | 0.00 | 0.00 | 49 | 1014.9 |
| 20260905155320 | 34 | 229 | 0.0 | 4.8 | 0.00 | 0.00 | 0.00 | 48 | 1015.0 |
| 20260905154340 | 34 | 262 | 0.0 | 6.4 | 0.00 | 0.00 | 0.00 | 52 | 1015.0 |
| 20260905153355 | 33 | 331 | 0.0 | 3.2 | 0.00 | 0.00 | 0.00 | 54 | 1015.0 |
| 20260905152350 | 33 | 304 | 0.0 | 0.0 | 0.00 | 0.00 | 0.00 | 57 | 1015.1 |
| 20260905151326 | 33 | 304 | 0.0 | 0.0 | 0.00 | 0.00 | 0.00 | 57 | 1015.1 |
| 20260905150342 | 32 | 258 | 0.0 | 0.0 | 0.00 | 0.00 | 0.00 | 59 | 1015.1 |
| 20260905145332 | 32 | 261 | 0.0 | 0.0 | 0.00 | 0.00 | 0.00 | 61 | 1015.1 |
| 20260905144319 | 31 | 259 | 0.0 | 0.0 | 0.00 | 0.00 | 0.00 | 65 | 1015.1 |
| 20260905143316 | 31 | 251 | 0.0 | 0.0 | 0.00 | 0.00 | 0.00 | 63 | 1015.1 |
| 20260905142332 | 31 | 218 | 0.0 | 0.0 | 0.00 | 0.00 | 0.00 | 65 | 1015.1 |
| 20260905141329 | 30 | 209 | 0.0 | 0.0 | 0.00 | 0.00 | 0.00 | 68 | 1015.2 |
| 20260905140316 | 29 | 297 | 0.0 | 0.0 | 0.00 | 0.00 | 0.00 | 70 | 1015.3 |
| 20260905135336 | 28 | 198 | 0.0 | 0.0 | 0.00 | 0.00 | 0.00 | 73 | 1015.2 |
| 20260905134352 | 27 | 200 | 0.0 | 0.0 | 0.00 | 0.00 | 0.00 | 80 | 1015.4 |
| 20260905133328 | 27 | 200 | 0.0 | 0.0 | 0.00 | 0.00 | 0.00 | 84 | 1015.4 |
| 20260905132345 | 26 | 199 | 0.0 | 0.0 | 0.00 | 0.00 | 0.00 | 90 | 1015.4 |
| 20260905131340 | 25 | 194 | 0.0 | 0.0 | 0.00 | 0.00 | 0.00 | 94 | 1015.4 |
| 20260905130356 | 25 | 236 | 0.0 | 0.0 | 0.00 | 0.00 | 0.00 | 96 | 1015.4 |
| 20260905125323 | 24 | 237 | 0.0 | 6.4 | 0.00 | 0.00 | 0.00 | 98 | 1015.5 |
| 20260905124340 | 23 | 213 | 0.0 | 0.0 | 0.00 | 0.00 | 0.00 | 99 | 1015.6 |
| 20260905123327 | 23 | 213 | 0.0 | 0.0 | 0.00 | 0.00 | 0.00 | 98 | 1015.5 |
| 20260905122323 | 23 | 213 | 0.0 | 0.0 | 0.00 | 0.00 | 0.00 | 98 | 1015.5 |
| 20260905121320 | 22 | 213 | 0.0 | 0.0 | 0.00 | 0.00 | 0.00 | 98 | 1015.4 |
| 20260905120333 | 22 | 213 | 0.0 | 0.0 | 0.00 | 0.00 | 0.00 | 97 | 1015.5 |
| 20260905115324 | 22 | 213 | 0.0 | 0.0 | 0.00 | 0.00 | 0.00 | 96 | 1015.4 |
| 20260905114320 | 22 | 213 | 0.0 | 0.0 | 0.00 | 0.00 | 0.00 | 96 | 1015.3 |
| 20260905113352 | 22 | 213 | 0.0 | 0.0 | 0.00 | 0.00 | 0.00 | 96 | 1015.2 |
| 20260905112326 | 22 | 213 | 0.0 | 0.0 | 0.00 | 0.00 | 0.00 | 96 | 1014.9 |
| 20260905111342 | 22 | 213 | 0.0 | 0.0 | 0.00 | 0.00 | 0.00 | 96 | 1014.7 |
| 20260905110400 | 22 | 213 | 0.0 | 0.0 | 0.00 | 0.00 | 0.00 | 96 | 1014.6 |
| 20260905105349 | 22 | 213 | 0.0 | 0.0 | 0.00 | 0.00 | 0.00 | 95 | 1014.4 |
| 20260905104325 | 22 | 213 | 0.0 | 0.0 | 0.00 | 0.00 | 0.00 | 95 | 1014.4 |
| 20260905103323 | 22 | 213 | 0.0 | 0.0 | 0.00 | 0.00 | 0.00 | 94 | 1014.3 |
| 20260905102340 | 22 | 213 | 0.0 | 0.0 | 0.00 | 0.00 | 0.00 | 95 | 1014.2 |
| 20260905101327 | 22 | 213 | 0.0 | 0.0 | 0.00 | 0.00 | 0.00 | 95 | 1014.3 |
| 20260905100352 | 22 | 213 | 0.0 | 0.0 | 0.00 | 0.00 | 0.00 | 94 | 1014.1 |
| 20260905095322 | 22 | 213 | 0.0 | 0.0 | 0.00 | 0.00 | 0.00 | 94 | 1014.1 |
| 20260905094318 | 22 | 213 | 0.0 | 0.0 | 0.00 | 0.00 | 0.00 | 94 | 1014.2 |
| 20260905093314 | 22 | 213 | 0.0 | 0.0 | 0.00 | 0.00 | 0.00 | 93 | 1014.2 |
| 20260905092331 | 22 | 213 | 0.0 | 0.0 | 0.00 | 0.00 | 0.00 | 93 | 1014.2 |
| 20260905091318 | 23 | 213 | 0.0 | 0.0 | 0.00 | 0.00 | 0.00 | 93 | 1014.3 |